CZ-6A DEB, 64660

Orbit data source: Space-Track

CZ-6A DEB, 64660 is space debris in LEO originally from a launch on Tue, 06 Aug 2024 UTC launched from the Taiyaun Space Center, China (TSC). Debris objects in space refer to the collection of defunct objects orbiting the Earth. Examples of debris include non-operational satellites, rocket bodies, and fragments generated from explosions, collisions, or faulty payload assembly.

Loading next visibility...
Identifier
64660, 2024-140AFA
Orbit
LEO
Country
Flag of CNCN / PRC
Related business
Manufacturer
SAST
Mission
Spacecraft
Bus & Motor
Unknown
Mass
Unknown
Launch date (UTC)
2024-08-06 (2 years ago)
Launch vehicle
Unknown
Launch site
Taiyaun Space Center, China (TSC)
Object type
Payload
Rocket body
Debris
Shape & HBR
Unknown shape, 0.1 m
Radar Cross Section
Small (<0.1 m²)

Expand to show TLE details & history
Last TLE update: 9 hours ago

TLE from 9 hours ago
0 CZ-6A DEB
1 64660U 24140AFA 26130.22666323  .00001861  00000-0  67955-3 0  9996
2 64660  88.3318 226.7083 0040040 201.0554 158.8996 14.32184986 80648
Epoch: 2026-05-10T05:26Z
TLE epoch observation values (Epoch: 2026-05-10T05:26:23.703Z)
Latitude
-0.00003°
Longitude
-82.92324°
Altitude
814.28 km
Speed
7.432 km/s
True Right ascension
15h 06m 49s
True Declination
0° 00' 00"
Sunlit
Object was in full shadow at epoch
Visualization orbit readout
Latitude
Unknown
Longitude
Unknown
Altitude
Unknown
Speed
Unknown
Apparent Right ascension
Unknown
Apparent Declination
Unknown
Sunlit
N/A
Visualization observer readout
Local Sidereal Time
22:11:12
Azimuth
Unknown
Elevation
Unknown
Doppler factor
Unknown
Orbital elements
Apogee altitude
810.042 km
Perigee altitude
752.709 km
Semi-major axis
7,159.512 km
Eccentricity
0.004
Inclination
88.3318°
RAAN
226.7083°
Arg. of periapsis
201.0554°
True anomaly
159.06401°
Mean anomaly
158.8996°
Eccentric anomaly
158.98188°
Mean motion
3.58276 °/min
Orbital period
100.48 mins
BSTAR
0.00067955
Loading maneuver chart data...
Computing Atmospheric mass density...
Loading historical data...
Loading historical data...
Loading historical data...
Loading historical data...
Loading historical data...
Loading historical data...
Loading historical data...

Documentation

Showing up to 5 results
|